Date String (YYYY-MM-DD hh:mm:ss) UTC,Instrument flags,Ambient pressure (hPa),Sample flow (lpm),Bypass flow (lpm),Sample temperature (°C),Ambient temperature (°C),ASC tube jacket temperature (°C),LED temperature (°C),Box temperature (°C),Sample RH (%),Span deviation,Mass concentration (μg/m³),Mass concentration (μg/m³),Mass concentration (μg/m³)
DateTimeUTC,F1_M11,P_M11,Q1_M11,Q2_M11,T1_M11,T2_M11,T3_M11,T4_M11,T5_M11,U1_M11,ZSPAN_M11,X0_M11,X2_M11,X1_M11
2021-10-28 05:00:00,,0826.7,5.00,0.00,26.1,25.3,00.0,35.4,27.9,11.0,0000.0,0004.30,0001.92,0001.40
2021-10-28 05:01:00,,0826.6,4.99,0.00,26.1,25.3,00.0,35.3,27.9,11.0,0000.0,0004.24,0001.92,0001.38
2021-10-28 05:02:00,,0826.6,5.01,0.00,26.1,25.3,00.0,35.3,27.9,11.0,0000.0,0003.99,0001.88,0001.37
2021-10-28 05:03:00,,0826.6,5.00,0.00,26.1,25.3,00.0,35.3,27.9,11.0,0000.0,0003.48,0001.82,0001.36
2021-10-28 05:04:00,,0826.6,4.99,0.00,26.1,25.3,00.0,35.3,27.9,11.0,0000.0,0003.60,0001.77,0001.33
2021-10-28 05:05:00,,0826.7,5.02,0.00,26.1,25.3,00.0,35.3,27.9,11.0,0000.0,0003.66,0001.71,0001.30
2021-10-28 05:06:00,,0826.7,5.00,0.00,26.1,25.3,00.0,35.3,27.9,11.0,0000.0,0003.92,0001.72,0001.30
2021-10-28 05:07:00,,0826.6,4.99,0.00,26.1,25.3,00.0,35.3,27.9,10.9,0000.0,0004.17,0001.73,0001.30
2021-10-28 05:08:00,,0826.6,5.00,0.00,26.1,25.3,00.0,35.2,27.9,10.9,0000.0,0004.10,0001.71,0001.28
2021-10-28 05:09:00,,0826.6,5.00,0.00,26.1,25.4,00.0,35.2,28.0,10.9,0000.0,0004.12,0001.68,0001.27
2021-10-28 05:10:00,,0826.7,5.01,0.00,26.1,25.4,00.0,35.2,28.0,10.9,0000.0,0004.14,0001.67,0001.25
2021-10-28 05:11:00,,0826.6,4.99,0.00,26.1,25.4,00.0,35.2,28.0,10.9,0000.0,0004.06,0001.63,0001.23
2021-10-28 05:12:00,,0826.5,5.01,0.00,26.1,25.3,00.0,35.2,28.0,10.9,0000.0,0004.01,0001.61,0001.22
2021-10-28 05:13:00,,0826.5,4.99,0.00,26.1,25.3,00.0,35.2,27.9,10.9,0000.0,0003.63,0001.62,0001.22
2021-10-28 05:14:00,,0826.6,4.99,0.00,26.1,25.3,00.0,35.2,27.9,10.9,0000.0,0003.56,0001.61,0001.21
2021-10-28 05:15:00,,0826.7,5.00,0.00,26.1,25.3,00.0,35.2,27.8,10.9,0000.0,0003.37,0001.58,0001.19
2021-10-28 05:16:00,,0826.7,5.01,0.00,26.0,25.2,00.0,35.2,27.8,11.0,0000.0,0003.26,0001.55,0001.17
2021-10-28 05:17:00,,0826.7,5.00,0.00,26.0,25.2,00.0,35.2,27.8,11.0,0000.0,0003.19,0001.53,0001.14
2021-10-28 05:18:00,,0826.7,4.99,0.00,26.0,25.2,00.0,35.2,27.8,11.0,0000.0,0003.04,0001.53,0001.13
2021-10-28 05:19:00,,0826.7,4.99,0.00,26.0,25.1,00.0,35.2,27.7,11.0,0000.0,0002.99,0001.52,0001.11
2021-10-28 05:20:00,,0826.7,5.00,0.00,25.9,25.1,00.0,35.1,27.7,11.0,0000.0,0002.83,0001.48,0001.09
2021-10-28 05:21:00,,0826.7,5.01,0.00,25.9,25.0,00.0,35.1,27.6,11.1,0000.0,0002.79,0001.44,0001.07
2021-10-28 05:22:00,,0826.7,4.99,0.00,25.8,25.0,00.0,35.1,27.6,11.2,0000.0,0002.86,0001.46,0001.06
2021-10-28 05:23:00,,0826.7,5.01,0.00,25.8,25.0,00.0,35.1,27.6,11.2,0000.0,0002.87,0001.48,0001.07
2021-10-28 05:24:00,,0826.7,4.98,0.00,25.8,25.0,00.0,35.1,27.6,11.2,0000.0,0002.74,0001.41,0001.05
2021-10-28 05:25:00,,0826.6,5.00,0.00,25.8,25.0,00.0,35.0,27.6,11.2,0000.0,0002.80,0001.44,0001.04
2021-10-28 05:26:00,,0826.6,5.00,0.00,25.8,25.0,00.0,35.0,27.6,11.2,0000.0,0002.81,0001.45,0001.05
2021-10-28 05:27:00,,0826.5,5.01,0.00,25.8,25.0,00.0,35.0,27.6,11.2,0000.0,0002.71,0001.50,0001.05
2021-10-28 05:28:00,,0826.7,4.99,0.00,25.8,25.1,00.0,35.0,27.7,11.2,0000.0,0002.58,0001.48,0001.05
2021-10-28 05:29:00,,0826.7,5.00,0.00,25.9,25.1,00.0,35.0,27.7,11.1,0000.0,0002.46,0001.46,0001.06
2021-10-28 05:30:00,,0826.8,5.01,0.00,25.9,25.2,00.0,35.0,27.7,11.1,0000.0,0002.96,0001.46,0001.05
2021-10-28 05:31:00,,0826.7,5.00,0.00,25.9,25.2,00.0,35.0,27.7,11.1,0000.0,0003.51,0001.48,0001.06
2021-10-28 05:32:00,,0826.7,5.00,0.00,25.9,25.2,00.0,35.0,27.8,11.1,0000.0,0003.37,0001.44,0001.04
2021-10-28 05:33:00,,0826.7,4.99,0.00,26.0,25.2,00.0,35.0,27.8,11.1,0000.0,0003.25,0001.40,0001.03
2021-10-28 05:34:00,,0826.7,5.01,0.00,26.0,25.2,00.0,35.0,27.8,11.1,0000.0,0003.17,0001.36,0001.01
2021-10-28 05:35:00,,0826.7,4.98,0.00,26.0,25.2,00.0,35.0,27.8,11.0,0000.0,0003.25,0001.39,0001.00
2021-10-28 05:36:00,,0826.6,5.01,0.00,26.0,25.2,00.0,35.0,27.8,11.0,0000.0,0003.23,0001.36,0001.00
2021-10-28 05:37:00,,0826.7,5.01,0.00,26.0,25.2,00.0,35.0,27.8,11.1,0000.0,0003.20,0001.34,0000.99
2021-10-28 05:38:00,,0826.7,5.00,0.00,25.9,25.2,00.0,35.0,27.7,11.1,0000.0,0003.16,0001.30,0000.97
2021-10-28 05:39:00,,0826.7,5.00,0.00,25.9,25.1,00.0,35.0,27.7,11.1,0000.0,0003.16,0001.30,0000.96
2021-10-28 05:40:00,,0826.8,5.00,0.00,25.8,25.1,00.0,35.0,27.6,11.1,0000.0,0003.25,0001.33,0000.95
2021-10-28 05:41:00,,0826.8,5.00,0.00,25.8,25.0,00.0,35.0,27.5,11.2,0000.0,0003.37,0001.38,0000.94
2021-10-28 05:42:00,,0826.8,5.00,0.00,25.8,24.9,00.0,35.0,27.5,11.2,0000.0,0002.59,0001.35,0000.93
2021-10-28 05:43:00,,0826.8,5.00,0.00,25.7,24.8,00.0,34.9,27.4,11.2,0000.0,0002.53,0001.34,0000.93
2021-10-28 05:44:00,,0826.8,5.00,0.00,25.7,24.8,00.0,34.9,27.4,11.2,0000.0,0002.64,0001.35,0000.92
2021-10-28 05:45:00,,0826.8,4.99,0.00,25.6,24.8,00.0,34.9,27.4,11.3,0000.0,0003.13,0001.35,0000.92
2021-10-28 05:46:00,,0826.8,4.99,0.00,25.6,24.7,00.0,34.9,27.4,11.3,0000.0,0003.12,0001.32,0000.92
2021-10-28 05:47:00,,0826.8,5.00,0.00,25.6,24.7,00.0,34.9,27.3,11.3,0000.0,0003.16,0001.31,0000.91
2021-10-28 05:48:00,,0826.7,5.01,0.00,25.5,24.6,00.0,34.8,27.2,11.3,0000.0,0003.21,0001.31,0000.90
2021-10-28 05:49:00,,0826.7,5.00,0.00,25.5,24.6,00.0,34.8,27.2,11.4,0000.0,0003.19,0001.31,0000.90
2021-10-28 05:50:00,,0826.7,4.99,0.00,25.5,24.6,00.0,34.8,27.2,11.4,0000.0,0003.06,0001.27,0000.90
2021-10-28 05:51:00,,0826.7,5.01,0.00,25.4,24.6,00.0,34.8,27.1,11.5,0000.0,0003.21,0001.31,0000.90
2021-10-28 05:52:00,,0826.7,4.99,0.00,25.4,24.6,00.0,34.7,27.1,11.5,0000.0,0003.05,0001.31,0000.90
2021-10-28 05:53:00,,0826.7,5.01,0.00,25.4,24.5,00.0,34.7,27.1,11.5,0000.0,0002.96,0001.31,0000.91
2021-10-28 05:54:00,,0826.8,5.00,0.00,25.4,24.5,00.0,34.7,27.1,11.5,0000.0,0003.09,0001.33,0000.91
2021-10-28 05:55:00,,0826.9,4.99,0.00,25.3,24.5,00.0,34.7,27.1,11.5,0000.0,0003.14,0001.36,0000.92
2021-10-28 05:56:00,,0826.9,5.00,0.00,25.3,24.5,00.0,34.6,27.1,11.5,0000.0,0002.73,0001.41,0000.93
2021-10-28 05:57:00,,0826.7,5.01,0.00,25.3,24.5,00.0,34.6,27.0,11.5,0000.0,0002.71,0001.40,0000.94
2021-10-28 05:58:00,,0826.7,4.99,0.00,25.3,24.5,00.0,34.6,27.0,11.5,0000.0,0002.79,0001.39,0000.94
2021-10-28 05:59:00,,0826.7,5.00,0.00,25.3,24.4,00.0,34.6,27.0,11.5,0000.0,0002.70,0001.37,0000.95
